Regional Weather Roundup
Issued by NWS

Home | Current Version | Previous Version | Text Only | Print | Product List | Glossary On
Versions: 1 2 3 4 5 6 7 8 9 10 11 12 13 14 15 16 17 18 19 20 21 22 23 24 25 26 27 28 29 30 31 32 33 34 35 36 37 38 39 40 41 42 43 44 45 46 47 48 49 50
000
ASUS43 KOAX 020813
RWRNE

WEATHER ROUNDUP FOR NEBRASKA
NATIONAL WEATHER SERVICE OMAHA NE
200 AM CST THU FEB 02 2023

NOTES: SATELLITE DATA IS BEING USED TO AUGMENT CLOUD COVER ABOVE
       12000 FEET.
       "FAIR" INDICATES FEW OR NO CLOUDS BELOW 12,000 FEET WITH NO
       SIGNIFICANT WEATHER AND/OR OBSTRUCTIONS TO VISIBILITY.


NEZ001>004-019>022-054>056-020900-
NEBRASKA PANHANDLE

CITY           SKY/WX    TMP DP  RH WIND       PRES   REMARKS
SCOTTSBLUFF    PTCLDY    19  11  70 W6        30.16R WCI  11
ALLIANCE       PTCLDY     9   4  80 W13       30.13S WCI  -7
CHADRON        PTCLDY    19  12  74 W7        30.15R WCI  10
GORDON         PTCLDY    26  14  61 W13       30.10R WCI  14
KIMBALL        CLEAR     22  12  64 W15       30.14S WCI   9
SIDNEY         CLEAR     18   8  65 W14       30.14S WCI   4
$$

NEZ057>060-069>072-079>082-020900-
SOUTHWEST NEBRASKA

CITY           SKY/WX    TMP DP  RH WIND       PRES   REMARKS
NORTH PLATTE   CLEAR      7   4  87 W7        30.16S FOG     WCI  -5
GRANT          FAIR      14   9  79 W17       30.15S WCI  -3
IMPERIAL       CLEAR     13   3  64 W13       30.16S WCI  -2
LEXINGTON      CLEAR      8   6  89 W7        30.16S WCI  -3
MCCOOK         CLEAR     17  11  77 W6        30.18S WCI   9
OGALLALA       CLEAR     10   6  87 NW5       30.17S WCI   1
$$

NEZ005>010-023>029-035>040-094-020900-
NORTH CENTRAL NEBRASKA

CITY           SKY/WX    TMP DP  RH WIND       PRES   REMARKS
VALENTINE      PTCLDY    16  10  77 SW10      30.10R WCI   4
AINSWORTH      PTCLDY    22  13  70 W13       30.08S WCI  10
BROKEN BOW     CLEAR     19  11  70 SW5       30.12S WCI  12
O`NEILL        PTCLDY    15   8  74 W9        30.09S WCI   3
ORD            CLEAR     11   7  84 CALM      30.12S
THEDFORD       CLEAR     17  11  80 W9        30.12R WCI   5
$$

NEZ041-046>049-061>064-073>077-083>087-020900-
SOUTH CENTRAL NEBRASKA

CITY           SKY/WX    TMP DP  RH WIND       PRES   REMARKS
GRAND ISLAND   CLEAR     18  12  77 W8        30.15S WCI   8
AURORA         CLEAR     16  11  81 SW7       30.15S WCI   7
HASTINGS       CLEAR     16  11  80 SW3       30.16
HEBRON         CLEAR     20  15  79 W6        30.18F WCI  12
HOLDREGE       CLEAR     17  11  76 W6        30.15F WCI   9
KEARNEY        CLEAR     17  12  80 W10       30.16S WCI   5
YORK           CLEAR     16  12  86 SW10      30.15R WCI   3
$$

NEZ011>018-030>034-042>045-020900-
NORTHEAST NEBRASKA

CITY           SKY/WX    TMP DP  RH WIND       PRES   REMARKS
NORFOLK        CLEAR      9   6  88 CALM      30.12S
ALBION         CLEAR     11   7  87 CALM      30.13S
BLAIR          CLEAR     19  15  83 W8        30.13S WCI   9
COLUMBUS       CLEAR     17  14  88 W8        30.15F WCI   7
FREMONT        CLEAR     13  11  91 CALM      30.15R
TEKAMAH        CLEAR     14  10  84 CALM      30.15R
WAYNE          CLEAR     10   6  84 S3        30.10F
$$

NEZ050>053-065>068-078-088>093-020900-
SOUTHEAST NEBRASKA

CITY           SKY/WX    TMP DP  RH WIND       PRES   REMARKS
LINCOLN        CLEAR     20  13  74 SW6       30.18S WCI  12
OMAHA EPPLEY   CLEAR     23  16  74 S6        30.16F WCI  16
BEATRICE       CLEAR     19  14  81 SW6       30.18F WCI  11
FALLS CITY     CLEAR     20  13  74 CALM      30.20S
NEBRASKA CITY  CLEAR     21  17  83 SW10      30.17F WCI  10
PLATTSMOUTH    CLEAR     23  15  73 SW8       30.16S WCI  13
$$

NEZ044-045-051>053-067-020900-
OMAHA AREA

CITY           SKY/WX    TMP DP  RH WIND       PRES   REMARKS
OMAHA EPPLEY   CLEAR     23  16  74 S6        30.16F WCI  16
BLAIR          CLEAR     19  15  83 W8        30.13S WCI   9
FREMONT        CLEAR     13  11  91 CALM      30.15R
MILLARD        CLEAR     21  16  81 CALM      30.16S
OFFUTT AFB     CLEAR     23  15  71 CALM      30.18F
PLATTSMOUTH    CLEAR     23  15  73 SW8       30.16S WCI  13
WAHOO          CLEAR     20  15  80 CALM      30.16R
$$



USA.gov is the U.S. government's official web portal to all federal, state and local government web resources and services.